Time,TemperatureF,DewpointF,PressureIn,WindDirection,WindDirectionDegrees,WindSpeedMPH,WindSpeedGustMPH,Humidity,HourlyPrecipIn,Conditions,Clouds,dailyrainin,SoftwareType,DateUTC
2013-01-20 00:00:00,31.6,30.6,29.48,ESE,108,5.0,10.0,96,0.00,CLR,,0.00,WeatherDisplay:10.37,2013-01-20 00:00:00,
2013-01-20 00:10:00,31.5,30.5,29.48,ESE,110,5.0,8.0,96,0.00,CLR,,0.00,WeatherDisplay:10.37,2013-01-20 00:10:00,
2013-01-20 00:20:00,31.5,30.5,29.48,ESE,112,5.0,10.0,96,0.00,CLR,,0.00,WeatherDisplay:10.37,2013-01-20 00:20:00,
2013-01-20 00:30:00,31.4,30.4,29.47,ESE,108,8.0,11.0,96,0.00,CLR,,0.00,WeatherDisplay:10.37,2013-01-20 00:30:00,
2013-01-20 00:40:00,31.5,30.5,29.47,ESE,110,5.0,11.0,96,0.00,CLR,,0.00,WeatherDisplay:10.37,2013-01-20 00:40:00,
2013-01-20 00:50:00,31.6,30.6,29.47,ESE,112,6.0,11.0,96,0.00,CLR,,0.00,WeatherDisplay:10.37,2013-01-20 00:50:00,
2013-01-20 01:00:00,31.6,30.6,29.46,ESE,112,6.0,11.0,96,0.00,CLR,,0.00,WeatherDisplay:10.37,2013-01-20 01:00:00,
2013-01-20 01:10:00,31.7,30.7,29.46,ESE,112,6.0,10.0,96,0.00,CLR,,0.00,WeatherDisplay:10.37,2013-01-20 01:10:00,
2013-01-20 01:20:00,31.9,30.9,29.47,ESE,112,8.0,11.0,96,0.00,CLR,,0.00,WeatherDisplay:10.37,2013-01-20 01:20:00,
2013-01-20 01:30:00,32.1,31.1,29.47,ESE,112,6.0,14.0,96,0.00,CLR,,0.00,WeatherDisplay:10.37,2013-01-20 01:30:00,
2013-01-20 01:40:00,32.3,31.3,29.47,ESE,109,9.0,18.0,96,0.00,CLR,,0.00,WeatherDisplay:10.37,2013-01-20 01:40:00,
2013-01-20 01:50:00,32.6,31.6,29.46,ESE,112,12.0,15.0,96,0.00,CLR,,0.00,WeatherDisplay:10.37,2013-01-20 01:50:00,
2013-01-20 02:00:00,32.9,31.9,29.46,ESE,110,9.0,18.0,96,0.00,CLR,,0.00,WeatherDisplay:10.37,2013-01-20 02:00:00,
2013-01-20 02:10:00,33.2,32.2,29.46,East,93,7.0,15.0,96,0.00,CLR,,0.00,WeatherDisplay:10.37,2013-01-20 02:10:00,
2013-01-20 09:30:00,33.5,32.4,29.46,ESE,106,6.0,12.0,96,0.00,BKN,,0.00,WeatherDisplay:10.37,2013-01-20 09:30:00,
2013-01-20 09:40:00,33.5,32.5,29.46,ESE,108,7.0,14.0,96,0.00,SCT,,0.00,WeatherDisplay:10.37,2013-01-20 09:40:00,
2013-01-20 10:00:00,33.7,32.7,29.45,ESE,107,9.0,15.0,96,0.00,SCT,,0.00,WeatherDisplay:10.37,2013-01-20 10:00:00,
2013-01-20 10:10:00,33.8,32.5,29.45,ESE,111,12.0,16.0,95,0.00,SCT,,0.00,WeatherDisplay:10.37,2013-01-20 10:10:00,
2013-01-20 10:20:00,34.0,32.7,29.45,ESE,111,12.0,15.0,95,0.00,SCT,,0.00,WeatherDisplay:10.37,2013-01-20 10:20:00,
2013-01-20 10:30:00,34.1,32.8,29.45,ESE,112,10.0,15.0,95,0.00,SCT,,0.00,WeatherDisplay:10.37,2013-01-20 10:30:00,
2013-01-20 10:40:00,34.4,32.9,29.45,ESE,113,10.0,16.0,94,0.00,BKN,,0.00,WeatherDisplay:10.37,2013-01-20 10:40:00,
2013-01-20 10:50:00,34.7,33.2,29.45,ESE,116,9.0,20.0,94,0.00,BKN,,0.00,WeatherDisplay:10.37,2013-01-20 10:50:00,
2013-01-20 11:00:00,34.9,33.1,29.44,ESE,114,13.0,19.0,93,0.00,BKN,,0.00,WeatherDisplay:10.37,2013-01-20 11:00:00,
2013-01-20 11:10:00,35.1,32.7,29.43,ESE,112,10.0,20.0,91,0.00,BKN,,0.00,WeatherDisplay:10.37,2013-01-20 11:10:00,
2013-01-20 11:20:00,35.3,32.7,29.43,ESE,108,12.0,19.0,90,0.01,RA,,0.01,WeatherDisplay:10.37,2013-01-20 11:20:00,
2013-01-20 11:30:00,35.6,32.6,29.43,ESE,113,15.0,21.0,89,0.00,RA,,0.01,WeatherDisplay:10.37,2013-01-20 11:30:00,
2013-01-20 11:40:00,36.0,32.8,29.43,ESE,115,14.0,23.0,88,0.00,BKN,,0.01,WeatherDisplay:10.37,2013-01-20 11:40:00,
2013-01-20 11:50:00,36.6,32.5,29.42,ESE,113,15.0,24.0,85,0.00,BKN,,0.01,WeatherDisplay:10.37,2013-01-20 11:50:00,
2013-01-20 12:00:00,36.7,32.0,29.42,ESE,116,9.0,19.0,83,0.00,BKN,,0.01,WeatherDisplay:10.37,2013-01-20 12:00:00,
2013-01-20 12:10:00,36.5,31.8,29.41,ESE,112,13.0,20.0,83,0.00,BKN,,0.01,WeatherDisplay:10.37,2013-01-20 12:10:00,
2013-01-20 12:20:00,36.6,31.6,29.41,ESE,113,15.0,21.0,82,0.00,BKN,,0.01,WeatherDisplay:10.37,2013-01-20 12:20:00,
2013-01-20 12:30:00,36.8,31.5,29.41,ESE,117,16.0,21.0,81,0.00,BKN,,0.01,WeatherDisplay:10.37,2013-01-20 12:30:00,
2013-01-20 12:40:00,36.8,31.5,29.41,ESE,109,12.0,20.0,81,0.00,BKN,,0.01,WeatherDisplay:10.37,2013-01-20 12:40:00,
2013-01-20 12:50:00,36.7,31.7,29.41,ESE,113,10.0,19.0,82,0.00,BKN,,0.01,WeatherDisplay:10.37,2013-01-20 12:50:00,
2013-01-20 13:00:00,36.9,32.0,29.40,ESE,116,9.0,19.0,82,0.00,BKN,,0.01,WeatherDisplay:10.37,2013-01-20 13:00:00,
2013-01-20 13:10:00,37.3,32.6,29.40,ESE,112,12.0,21.0,83,0.00,BKN,,0.01,WeatherDisplay:10.37,2013-01-20 13:10:00,
2013-01-20 13:20:00,37.4,33.0,29.40,ESE,118,12.0,20.0,84,0.00,BKN,,0.01,WeatherDisplay:10.37,2013-01-20 13:20:00,
2013-01-20 13:30:00,37.8,33.4,29.39,ESE,109,14.0,21.0,84,0.00,BKN,,0.01,WeatherDisplay:10.37,2013-01-20 13:30:00,
2013-01-20 13:40:00,37.9,33.2,29.39,ESE,103,15.0,21.0,83,0.00,BKN,,0.01,WeatherDisplay:10.37,2013-01-20 13:40:00,
2013-01-20 13:50:00,37.7,33.0,29.38,ESE,105,10.0,23.0,83,0.00,BKN,,0.01,WeatherDisplay:10.37,2013-01-20 13:50:00,
2013-01-20 14:00:00,37.6,32.9,29.38,ESE,109,12.0,20.0,83,0.00,BKN,,0.01,WeatherDisplay:10.37,2013-01-20 14:00:00,
2013-01-20 14:10:00,37.4,32.7,29.37,ESE,106,12.0,21.0,83,0.00,BKN,,0.01,WeatherDisplay:10.37,2013-01-20 14:10:00,
2013-01-20 14:20:00,37.7,33.0,29.37,ESE,115,10.0,19.0,83,0.00,BKN,,0.01,WeatherDisplay:10.37,2013-01-20 14:20:00,
2013-01-20 14:30:00,37.8,33.4,29.37,ESE,107,9.0,16.0,84,0.00,BKN,,0.01,WeatherDisplay:10.37,2013-01-20 14:30:00,
2013-01-20 14:40:00,37.8,33.1,29.37,ESE,108,9.0,18.0,83,0.00,BKN,,0.01,WeatherDisplay:10.37,2013-01-20 14:40:00,
2013-01-20 14:50:00,37.8,32.8,29.37,ESE,108,12.0,19.0,82,0.00,BKN,,0.01,WeatherDisplay:10.37,2013-01-20 14:50:00,
2013-01-20 15:00:00,37.8,32.8,29.36,East,100,12.0,20.0,82,0.00,BKN,,0.01,WeatherDisplay:10.37,2013-01-20 15:00:00,
2013-01-20 15:10:00,37.7,32.7,29.36,ESE,110,15.0,30.0,82,0.00,BKN,,0.01,WeatherDisplay:10.37,2013-01-20 15:10:00,
2013-01-20 15:20:00,37.6,32.6,29.36,ESE,110,9.0,21.0,82,0.00,BKN,,0.01,WeatherDisplay:10.37,2013-01-20 15:20:00,
2013-01-20 15:30:00,37.5,32.8,29.36,ESE,110,14.0,20.0,83,0.00,BKN,,0.01,WeatherDisplay:10.37,2013-01-20 15:30:00,
2013-01-20 15:40:00,37.4,32.7,29.36,ESE,103,10.0,20.0,83,0.00,BKN,,0.01,WeatherDisplay:10.37,2013-01-20 15:40:00,
2013-01-20 15:50:00,37.3,32.9,29.36,ESE,105,8.0,15.0,84,0.00,BKN,,0.01,WeatherDisplay:10.37,2013-01-20 15:50:00,
2013-01-20 16:00:00,37.2,32.8,29.36,ESE,111,9.0,20.0,84,0.00,BKN,,0.01,WeatherDisplay:10.37,2013-01-20 16:00:00,
2013-01-20 16:10:00,37.1,32.7,29.36,ESE,110,10.0,20.0,84,0.00,OVC,,0.01,WeatherDisplay:10.37,2013-01-20 16:10:00,
2013-01-20 16:20:00,37.0,32.9,29.36,ESE,110,12.0,16.0,85,0.00,OVC,,0.01,WeatherDisplay:10.37,2013-01-20 16:20:00,
2013-01-20 16:30:00,37.0,32.9,29.36,ESE,108,8.0,16.0,85,0.00,OVC,,0.01,WeatherDisplay:10.37,2013-01-20 16:30:00,
2013-01-20 16:40:00,36.9,32.5,29.36,ESE,113,9.0,18.0,84,0.00,OVC,,0.01,WeatherDisplay:10.37,2013-01-20 16:40:00,
2013-01-20 16:50:00,36.8,32.7,29.36,ESE,115,8.0,15.0,85,0.00,OVC,,0.01,WeatherDisplay:10.37,2013-01-20 16:50:00,
2013-01-20 17:00:00,36.7,32.6,29.36,ESE,107,10.0,15.0,85,0.00,OVC,,0.01,WeatherDisplay:10.37,2013-01-20 17:00:00,
2013-01-20 17:10:00,36.6,32.8,29.36,ESE,111,9.0,15.0,86,0.00,BKN,,0.01,WeatherDisplay:10.37,2013-01-20 17:10:00,
2013-01-20 17:20:00,36.5,32.7,29.36,ESE,118,12.0,16.0,86,0.00,BKN,,0.01,WeatherDisplay:10.37,2013-01-20 17:20:00,
2013-01-20 17:30:00,36.4,32.6,29.36,ESE,114,8.0,15.0,86,0.00,BKN,,0.01,WeatherDisplay:10.37,2013-01-20 17:30:00,
2013-01-20 17:40:00,36.4,32.6,29.35,ESE,109,9.0,16.0,86,0.00,BKN,,0.01,WeatherDisplay:10.37,2013-01-20 17:40:00,
2013-01-20 17:50:00,36.2,32.4,29.35,ESE,111,7.0,13.0,86,0.00,BKN,,0.01,WeatherDisplay:10.37,2013-01-20 17:50:00,
2013-01-20 18:00:00,36.2,32.7,29.35,ESE,110,7.0,15.0,87,0.00,BKN,,0.01,WeatherDisplay:10.37,2013-01-20 18:00:00,
2013-01-20 18:10:00,36.1,32.6,29.35,ESE,112,6.0,12.0,87,0.00,BKN,,0.01,WeatherDisplay:10.37,2013-01-20 18:10:00,
2013-01-20 18:20:00,36.0,32.5,29.35,ESE,108,6.0,15.0,87,0.00,BKN,,0.01,WeatherDisplay:10.37,2013-01-20 18:20:00,
2013-01-20 18:30:00,35.9,32.4,29.35,ESE,118,7.0,14.0,87,0.00,BKN,,0.01,WeatherDisplay:10.37,2013-01-20 18:30:00,
2013-01-20 18:40:00,35.7,32.2,29.35,ESE,109,7.0,10.0,87,0.00,BKN,,0.01,WeatherDisplay:10.37,2013-01-20 18:40:00,
2013-01-20 18:50:00,35.6,32.1,29.34,ESE,111,7.0,13.0,87,0.00,BKN,,0.01,WeatherDisplay:10.37,2013-01-20 18:50:00,
2013-01-20 19:00:00,35.6,32.1,29.34,ESE,108,7.0,15.0,87,0.00,BKN,,0.01,WeatherDisplay:10.37,2013-01-20 19:00:00,
2013-01-20 19:10:00,35.6,32.1,29.34,ESE,105,8.0,10.0,87,0.00,BKN,,0.01,WeatherDisplay:10.37,2013-01-20 19:10:00,
2013-01-20 19:20:00,35.5,32.0,29.34,ESE,104,6.0,14.0,87,0.00,BKN,,0.01,WeatherDisplay:10.37,2013-01-20 19:20:00,
2013-01-20 19:30:00,35.5,32.3,29.34,East,100,5.0,12.0,88,0.00,BKN,,0.01,WeatherDisplay:10.37,2013-01-20 19:30:00,
2013-01-20 19:40:00,35.5,32.3,29.34,East,99,8.0,12.0,88,0.00,BKN,,0.01,WeatherDisplay:10.37,2013-01-20 19:40:00,
2013-01-20 19:50:00,35.5,32.3,29.34,ESE,116,12.0,15.0,88,0.00,BKN,,0.01,WeatherDisplay:10.37,2013-01-20 19:50:00,
2013-01-20 20:00:00,35.5,32.3,29.35,ESE,113,6.0,15.0,88,0.00,BKN,,0.01,WeatherDisplay:10.37,2013-01-20 20:00:00,
2013-01-20 20:10:00,35.5,32.3,29.35,ESE,118,7.0,12.0,88,0.00,BKN,,0.01,WeatherDisplay:10.37,2013-01-20 20:10:00,
2013-01-20 20:20:00,35.5,32.3,29.35,ESE,115,9.0,13.0,88,0.00,BKN,,0.01,WeatherDisplay:10.37,2013-01-20 20:20:00,
2013-01-20 20:30:00,35.4,32.2,29.35,ESE,114,9.0,13.0,88,0.00,BKN,,0.01,WeatherDisplay:10.37,2013-01-20 20:30:00,
2013-01-20 20:40:00,35.3,32.1,29.35,ESE,118,6.0,15.0,88,0.00,OVC,,0.01,WeatherDisplay:10.37,2013-01-20 20:40:00,
2013-01-20 20:50:00,35.3,32.4,29.35,ESE,111,6.0,10.0,89,0.00,OVC,,0.01,WeatherDisplay:10.37,2013-01-20 20:50:00,
2013-01-20 21:00:00,35.2,32.3,29.35,ESE,108,3.0,10.0,89,0.00,OVC,,0.01,WeatherDisplay:10.37,2013-01-20 21:00:00,
2013-01-20 21:10:00,35.0,32.1,29.35,ESE,108,5.0,12.0,89,0.00,OVC,,0.01,WeatherDisplay:10.37,2013-01-20 21:10:00,
2013-01-20 21:20:00,35.0,32.1,29.34,ESE,107,7.0,12.0,89,0.00,OVC,,0.01,WeatherDisplay:10.37,2013-01-20 21:20:00,
2013-01-20 21:30:00,35.0,32.4,29.35,ESE,112,6.0,13.0,90,0.00,OVC,,0.01,WeatherDisplay:10.37,2013-01-20 21:30:00,
2013-01-20 21:40:00,35.1,32.5,29.35,ESE,109,5.0,12.0,90,0.00,OVC,,0.01,WeatherDisplay:10.37,2013-01-20 21:40:00,
2013-01-20 21:50:00,35.1,32.5,29.35,ESE,110,6.0,13.0,90,0.00,OVC,,0.01,WeatherDisplay:10.37,2013-01-20 21:50:00,
2013-01-20 22:00:00,35.2,32.6,29.35,ESE,112,5.0,9.0,90,0.00,OVC,,0.01,WeatherDisplay:10.37,2013-01-20 22:00:00,
2013-01-20 22:10:00,35.2,32.6,29.35,ESE,114,7.0,13.0,90,0.00,OVC,,0.01,WeatherDisplay:10.37,2013-01-20 22:10:00,
2013-01-20 22:20:00,35.3,32.6,29.35,ESE,112,7.0,14.0,90,0.00,OVC,,0.01,WeatherDisplay:10.37,2013-01-20 22:20:00,
2013-01-20 22:30:00,35.3,32.7,29.35,ESE,104,6.0,9.0,90,0.00,OVC,,0.01,WeatherDisplay:10.37,2013-01-20 22:30:00,
2013-01-20 22:40:00,35.3,32.7,29.35,ESE,104,5.0,10.0,90,0.00,OVC,,0.01,WeatherDisplay:10.37,2013-01-20 22:40:00,
2013-01-20 22:50:00,35.2,32.6,29.35,ESE,105,3.0,12.0,90,0.00,OVC,,0.01,WeatherDisplay:10.37,2013-01-20 22:50:00,
2013-01-20 23:00:00,35.2,32.6,29.35,ESE,114,3.0,7.0,90,0.00,OVC,,0.01,WeatherDisplay:10.37,2013-01-20 23:00:00,
2013-01-20 23:10:00,35.2,32.6,29.36,ESE,109,1.0,4.0,90,0.00,OVC,,0.01,WeatherDisplay:10.37,2013-01-20 23:10:00,
2013-01-20 23:20:00,35.2,32.5,29.36,ESE,109,0.0,3.0,90,0.00,OVC,,0.01,WeatherDisplay:10.37,2013-01-20 23:20:00,
2013-01-20 23:30:00,35.1,32.5,29.36,ESE,109,1.0,3.0,90,0.00,OVC,,0.01,WeatherDisplay:10.37,2013-01-20 23:30:00,
2013-01-20 23:40:00,35.1,32.5,29.36,ESE,123,3.0,6.0,90,0.00,OVC,,0.01,WeatherDisplay:10.37,2013-01-20 23:40:00,
2013-01-20 23:50:00,35.1,32.5,29.36,ESE,123,2.0,5.0,90,0.00,OVC,,0.01,WeatherDisplay:10.37,2013-01-20 23:50:00,